Location: Dunedin
(45.8670°S, 170.5000°E)
Time: 13:54:25
(UTC+12:00)

Cosmos 2360 Rocket - Pass Details

Date: 24 January 2019
Orbit: 832 x 847 km, 71.0° (Epoch: 22 April)

Event Time Altitude Azimuth Distance (km) Brightness Sun altitude
Rises 22:41:27 0° 353° (N) 3,403 5.0 -12.2°
Reaches altitude 10° 22:43:56 10° 358° (N) 2,476 4.2 -12.5°
Maximum altitude 22:49:25 50° 71° (ENE) 1,086 2.4 -13.1°
Drops below altitude 10° 22:54:56 10° 144° (SE) 2,503 4.8 -13.8°
Sets 22:57:28 0° 149° (SSE) 3,444 5.6 -14.1°
